Weather History for Worcester, MA

Change the Weather History Date:

Tuesday, January 1, 2013

  Actual Average Record
Temperature  
Mean Temperature 24 °F 25 °F  
Max Temperature 32 °F 32 °F 58 °F (2011)
Min Temperature 16 °F 18 °F -5 °F (1936)
Degree Days  
Heating Degree Days 41 40  
Month to date heating degree days 41 40  
Since 1 July heating degree days 2256 2544  
Cooling Degree Days 0 0  
Month to date cooling degree days 0 0  
Year to date cooling degree days 0 0  
Moisture  
Dew Point 14 °F    
Average Humidity 56    
Maximum Humidity 63    
Minimum Humidity 49    
Precipitation  
Precipitation T in 0.11 in 1.25 in (1982)
Month to date precipitation T 0.11  
Year to date precipitation T 0.11  
Snow  
Snow T in 0.50 in 8.00 in (1935)
Month to date snowfall T 0.5  
Since 1 July snowfall 26.3 17.7  
Snow Depth 0.00 in    
Sea Level Pressure  
Sea Level Pressure 29.79 in    
Wind  
Wind Speed 17 mph (West)    
Max Wind Speed 32 mph    
Max Gust Speed 41 mph    
Visibility 10 miles    
Events      
T = Trace of Precipitation, MM = Missing Value Source: NWS Daily Summary

Daily Weather History Graph

Daily Weather History Graph

Search for Another Location

Airport:

Trip Planner

Search our weather history database for the weather conditions in past years. The results will help you decide how hot, cold, wet, or windy it might be!

Date:

Astronomy

Jan. 01, 2013 Rise Set
Actual Time 7:16 AM EST 4:26 PM EST
Civil Twilight 6:44 AM EST 4:57 PM EST
Nautical Twilight 6:09 AM EST 5:33 PM EST
Astronomical Twilight 5:35 AM EST 6:07 PM EST
Moon 8:59 PM EST (1/1) 9:22 AM EST (1/1)
Length of Visible Light 10h 13m
Length of Day
9h 09m
Waning Gibbous, 83% of the Moon is Illuminated
Jan 1
Waning Gibbous
Jan 4
Last Quarter
Jan 11
New
Jan 18
First Quarter
Jan 26
Full

Hourly Weather History & Observations

Time (EST) Temp. Windchill Dew Point Humidity Pressure Visibility Wind Dir Wind Speed Gust Speed Precip Events Conditions
12:54 AM 30.9 °F 19.8 °F 19.9 °F 64% 29.74 in 10.0 mi WSW 16.1 mph 23.0 mph N/A   Overcast
1:54 AM 32.0 °F 21.2 °F 19.9 °F 61% 29.75 in 10.0 mi West 16.1 mph - N/A   Overcast
2:54 AM 32.0 °F 22.1 °F 21.0 °F 64% 29.73 in 10.0 mi WSW 13.8 mph 23.0 mph N/A   Mostly Cloudy
3:54 AM 32.0 °F 21.2 °F 21.0 °F 64% 29.71 in 10.0 mi WSW 16.1 mph 21.9 mph N/A   Overcast
4:54 AM 32.0 °F 20.5 °F 21.9 °F 66% 29.73 in 10.0 mi West 18.4 mph 27.6 mph N/A   Overcast
5:54 AM 32.0 °F 22.1 °F 21.9 °F 66% 29.74 in 10.0 mi West 13.8 mph 21.9 mph 0.00 in   Overcast
6:54 AM 32.0 °F 21.6 °F 21.9 °F 66% 29.75 in 10.0 mi West 15.0 mph 21.9 mph N/A   Overcast
7:54 AM 32.0 °F 20.5 °F 21.9 °F 66% 29.76 in 10.0 mi West 18.4 mph 25.3 mph N/A   Overcast
8:54 AM 30.9 °F 19.4 °F 19.0 °F 61% 29.77 in 9.0 mi WNW 17.3 mph 31.1 mph N/A   Mostly Cloudy
9:54 AM 30.9 °F 15.9 °F 16.0 °F 54% 29.79 in 6.0 mi WNW 31.1 mph 41.4 mph 0.00 in   Clear
10:54 AM 30.0 °F 16.9 °F 15.1 °F 54% 29.80 in 10.0 mi WNW 21.9 mph 33.4 mph 0.00 in   Partly Cloudy
11:54 AM 28.9 °F 14.3 °F 15.1 °F 56% 29.77 in 9.0 mi WNW 26.5 mph 35.7 mph N/A   Mostly Cloudy
12:54 PM 28.9 °F 15.1 °F 15.1 °F 56% 29.77 in 10.0 mi WNW 23.0 mph 33.4 mph N/A   Mostly Cloudy
1:54 PM 28.0 °F 14.3 °F 12.9 °F 53% 29.76 in 9.0 mi WNW 21.9 mph 33.4 mph 0.00 in   Partly Cloudy
2:54 PM 27.0 °F 13.2 °F 10.0 °F 49% 29.76 in 10.0 mi WNW 20.7 mph 36.8 mph 0.00 in   Clear
3:54 PM 25.0 °F 11.3 °F 10.0 °F 53% 29.78 in 10.0 mi WNW 18.4 mph 29.9 mph N/A   Clear
4:54 PM 25.0 °F 14.2 °F 10.0 °F 53% 29.80 in 10.0 mi West 11.5 mph 24.2 mph N/A   Clear
5:54 PM 24.1 °F 11.5 °F 10.0 °F 55% 29.83 in 10.0 mi West 15.0 mph - N/A   Clear
6:54 PM 23.0 °F 9.6 °F 9.0 °F 55% 29.85 in 10.0 mi West 16.1 mph - N/A   Clear
7:54 PM 21.0 °F 8.6 °F 10.0 °F 63% 29.87 in 10.0 mi WNW 12.7 mph - N/A   Clear
8:54 PM 19.9 °F 6.2 °F 6.1 °F 55% 29.88 in 10.0 mi WNW 15.0 mph - N/A   Clear
9:54 PM 19.0 °F 5.0 °F 3.0 °F 50% 29.89 in 10.0 mi WNW 15.0 mph 20.7 mph N/A   Clear
10:54 PM 17.1 °F 6.6 °F 3.0 °F 54% 29.91 in 10.0 mi NW 8.1 mph - N/A   Clear
11:54 PM 16.0 °F 5.3 °F 1.0 °F 52% 29.91 in 10.0 mi West 8.1 mph - N/A   Clear